• In Netherlands
  • List of Countries
  • For 7 days
  • Water Temperature
  • Satellite Maps
  • Weather Map
  • Weather Widgets
  • user-avatar
    Login

    Hourly Weather Wiktoria

    Today, 22 February, Wednesday

    Time Temperature Precipitation Wind Pressure Humidity
    00:00 +16°C° 0 mm 1 mps 751 mmHg 45%
    01:00 +16°C° 0 mm 1 mps 751 mmHg 44%
    02:00 +15°C° 0 mm 1 mps 751 mmHg 45%
    03:00 +15°C° 0 mm 1 mps 751 mmHg 46%
    04:00 +14°C° 0 mm 1 mps 750 mmHg 48%
    05:00 +15°C° 0 mm 1 mps 750 mmHg 48%
    06:00 +15°C° 0 mm 1 mps 750 mmHg 47%
    07:00 +16°C° 0 mm 2 mps 751 mmHg 47%
    08:00 +19°C° 0 mm 2 mps 750 mmHg 43%
    09:00 +24°C° 0 mm 2 mps 750 mmHg 38%
    10:00 +27°C° 0 mm 2 mps 750 mmHg 34%
    11:00 +29°C° 0 mm 3 mps 749 mmHg 28%
    12:00 +31°C° 0 mm 3 mps 749 mmHg 22%
    13:00 +34°C° 0 mm 3 mps 748 mmHg 16%
    14:00 +35°C° 0 mm 3 mps 747 mmHg 15%
    15:00 +36°C° 0 mm 3 mps 747 mmHg 13%
    16:00 +37°C° 0 mm 3 mps 746 mmHg 11%
    17:00 +35°C° 0 mm 2 mps 746 mmHg 14%
    18:00 +31°C° 0 mm 2 mps 746 mmHg 17%
    19:00 +29°C° 0 mm 1 mps 745 mmHg 20%
    20:00 +28°C° 0 mm 1 mps 746 mmHg 21%
    21:00 +27°C° 0 mm 1 mps 746 mmHg 21%
    22:00 +26°C° 0 mm 1 mps 746 mmHg 21%
    23:00 +24°C° 0 mm 1 mps 747 mmHg 24%

    Tomorrow, 23 February, Thursday

    Time Temperature Precipitation Wind Pressure Humidity
    00:00 +23°C° 0 mm 1 mps 747 mmHg 27%
    01:00 +22°C° 0 mm 1 mps 747 mmHg 29%
    02:00 +21°C° 0 mm 1 mps 748 mmHg 36%
    03:00 +20°C° 0 mm 1 mps 748 mmHg 42%
    04:00 +18°C° 0 mm 1 mps 748 mmHg 49%
    05:00 +19°C° 0 mm 1 mps 749 mmHg 50%
    06:00 +19°C° 0 mm 1 mps 750 mmHg 51%
    07:00 +19°C° 0 mm 1 mps 750 mmHg 53%
    08:00 +22°C° 0 mm 1 mps 751 mmHg 46%
    09:00 +25°C° 0 mm 1 mps 751 mmHg 39%
    10:00 +28°C° 0 mm 1 mps 751 mmHg 33%
    11:00 +29°C° 0 mm 1 mps 751 mmHg 29%
    12:00 +31°C° 0 mm 1 mps 751 mmHg 26%
    13:00 +34°C° 0 mm 2 mps 751 mmHg 22%
    14:00 +34°C° 0 mm 2 mps 750 mmHg 22%
    15:00 +34°C° 0 mm 2 mps 750 mmHg 21%
    16:00 +35°C° 0 mm 2 mps 750 mmHg 20%
    17:00 +31°C° 0 mm 2 mps 750 mmHg 26%
    18:00 +29°C° 0 mm 2 mps 750 mmHg 32%
    19:00 +26°C° 0 mm 2 mps 751 mmHg 37%
    20:00 +25°C° 0 mm 2 mps 751 mmHg 46%
    21:00 +23°C° 0 mm 2 mps 752 mmHg 54%
    22:00 +21°C° 0 mm 2 mps 753 mmHg 62%
    23:00 +20°C° 0 mm 2 mps 753 mmHg 67%

    Day after tomorrow, 24 February, Friday

    Time Temperature Precipitation Wind Pressure Humidity
    00:00 +19°C° 0 mm 2 mps 753 mmHg 71%
    01:00 +18°C° 0 mm 2 mps 753 mmHg 76%
    02:00 +18°C° 0 mm 2 mps 753 mmHg 77%
    03:00 +17°C° 0 mm 2 mps 753 mmHg 79%
    04:00 +17°C° 0 mm 2 mps 753 mmHg 80%
    05:00 +17°C° 0 mm 2 mps 753 mmHg 79%
    06:00 +17°C° 0 mm 2 mps 753 mmHg 78%
    07:00 +17°C° 0 mm 2 mps 754 mmHg 77%
    08:00 +19°C° 0 mm 2 mps 754 mmHg 68%
    09:00 +21°C° 0 mm 2 mps 754 mmHg 58%
    10:00 +24°C° 0 mm 2 mps 754 mmHg 49%
    11:00 +25°C° 0 mm 2 mps 754 mmHg 44%
    12:00 +26°C° 0 mm 3 mps 754 mmHg 38%
    13:00 +28°C° 0 mm 3 mps 753 mmHg 32%
    14:00 +28°C° 0 mm 3 mps 753 mmHg 32%
    15:00 +27°C° 0 mm 3 mps 753 mmHg 32%
    16:00 +27°C° 0 mm 4 mps 752 mmHg 31%
    17:00 +25°C° 0 mm 4 mps 753 mmHg 38%
    18:00 +22°C° 0 mm 4 mps 753 mmHg 44%
    19:00 +20°C° 0 mm 4 mps 753 mmHg 50%
    20:00 +19°C° 0 mm 4 mps 754 mmHg 54%
    21:00 +18°C° 0 mm 3 mps 754 mmHg 58%
    22:00 +17°C° 0 mm 3 mps 755 mmHg 62%
    23:00 +16°C° 0 mm 3 mps 755 mmHg 64%

    25 February, Saturday

    Time Temperature Precipitation Wind Pressure Humidity
    00:00 +16°C° 0 mm 3 mps 754 mmHg 66%
    01:00 +14°C° 0 mm 3 mps 754 mmHg 68%
    02:00 +14°C° 0 mm 3 mps 754 mmHg 69%
    03:00 +15°C° 0 mm 2 mps 754 mmHg 71%
    04:00 +14°C° 0 mm 2 mps 754 mmHg 73%
    05:00 +15°C° 0 mm 2 mps 754 mmHg 72%
    06:00 +15°C° 0 mm 2 mps 754 mmHg 71%
    07:00 +15°C° 0 mm 2 mps 755 mmHg 70%
    08:00 +16°C° 0 mm 2 mps 755 mmHg 64%
    09:00 +18°C° 0 mm 2 mps 755 mmHg 57%
    10:00 +19°C° 0 mm 2 mps 755 mmHg 51%
    11:00 +21°C° 0 mm 2 mps 754 mmHg 48%
    12:00 +23°C° 0 mm 2 mps 753 mmHg 45%
    13:00 +24°C° 0 mm 1 mps 753 mmHg 43%
    14:00 +25°C° 0 mm 2 mps 752 mmHg 41%
    15:00 +26°C° 0 mm 2 mps 752 mmHg 40%
    16:00 +27°C° 0 mm 2 mps 751 mmHg 39%
    17:00 +26°C° 0 mm 2 mps 752 mmHg 42%
    18:00 +25°C° 0 mm 2 mps 752 mmHg 45%
    19:00 +24°C° 0 mm 2 mps 752 mmHg 47%
    20:00 +21°C° 0 mm 2 mps 753 mmHg 51%
    21:00 +20°C° 0 mm 2 mps 753 mmHg 55%
    22:00 +19°C° 0 mm 2 mps 753 mmHg 59%
    23:00 +18°C° 0 mm 2 mps 753 mmHg 63%

    26 February, Sunday

    Time Temperature Precipitation Wind Pressure Humidity
    00:00 +19°C° 0 mm 1 mps 753 mmHg 67%
    01:00 +18°C° 0 mm 1 mps 753 mmHg 72%
    02:00 +16°C° 0 mm 1 mps 753 mmHg 75%
    03:00 +16°C° 0 mm 1 mps 753 mmHg 79%
    04:00 +15°C° 0 mm 1 mps 753 mmHg 82%
    05:00 +15°C° 0 mm 1 mps 754 mmHg 81%
    06:00 +16°C° 0 mm 1 mps 754 mmHg 79%
    07:00 +16°C° 0 mm 1 mps 755 mmHg 78%
    08:00 +20°C° 0 mm 1 mps 755 mmHg 65%
    09:00 +23°C° 0 mm 1 mps 755 mmHg 52%
    10:00 +27°C° 0 mm 1 mps 755 mmHg 40%
    11:00 +28°C° 0 mm 1 mps 754 mmHg 35%
    12:00 +30°C° 0 mm 1 mps 754 mmHg 31%
    13:00 +32°C° 0 mm 1 mps 753 mmHg 27%
    14:00 +32°C° 0 mm 1 mps 753 mmHg 26%
    15:00 +33°C° 0 mm 1 mps 752 mmHg 24%
    16:00 +33°C° 0 mm 1 mps 752 mmHg 23%
    17:00 +30°C° 0 mm 1 mps 752 mmHg 30%
    18:00 +27°C° 0 mm 1 mps 752 mmHg 36%
    19:00 +24°C° 0 mm 1 mps 753 mmHg 42%
    20:00 +24°C° 0 mm 1 mps 753 mmHg 44%
    21:00 +23°C° 0 mm 1 mps 754 mmHg 45%
    22:00 +23°C° 0 mm 1 mps 754 mmHg 47%
    23:00 +22°C° 0 mm 1 mps 754 mmHg 50%

    27 February, Monday

    Time Temperature Precipitation Wind Pressure Humidity
    00:00 +21°C° 0 mm 1 mps 754 mmHg 53%
    01:00 +21°C° 0 mm 1 mps 754 mmHg 56%
    02:00 +20°C° 0 mm 1 mps 754 mmHg 60%
    03:00 +19°C° 0 mm 1 mps 755 mmHg 63%
    04:00 +19°C° 0 mm 1 mps 755 mmHg 67%
    05:00 +19°C° 0 mm 1 mps 756 mmHg 67%
    06:00 +19°C° 0 mm 1 mps 756 mmHg 68%
    07:00 +19°C° 0 mm 1 mps 757 mmHg 69%
    08:00 +21°C° 0 mm 1 mps 756 mmHg 61%
    09:00 +24°C° 0 mm 2 mps 756 mmHg 53%
    10:00 +26°C° 0 mm 2 mps 756 mmHg 45%
    11:00 +28°C° 0 mm 2 mps 756 mmHg 40%
    12:00 +30°C° 0 mm 2 mps 755 mmHg 35%
    13:00 +32°C° 0 mm 2 mps 754 mmHg 29%
    14:00 +33°C° 0 mm 1 mps 754 mmHg 28%
    15:00 +33°C° 0 mm 1 mps 753 mmHg 26%
    16:00 +34°C° 0 mm 1 mps 752 mmHg 25%
    17:00 +31°C° 0 mm 1 mps 752 mmHg 31%
    18:00 +28°C° 0 mm 1 mps 752 mmHg 37%
    19:00 +25°C° 0 mm 1 mps 752 mmHg 44%
    20:00 +25°C° 0 mm 1 mps 753 mmHg 45%
    21:00 +24°C° 0 mm 1 mps 753 mmHg 46%
    22:00 +23°C° 0 mm 1 mps 753 mmHg 47%
    23:00 +23°C° 0 mm 1 mps 753 mmHg 47%
    Show more